FLOCK 3P-4

Last updated on Wed Feb 14 2018 16:20:20 GMT+0000 (Coordinated Universal Time)

1 41965U 17008T 18044.79511661 .00001690 00000-0 72877-4 0 9995 2 41965 97.4655 110.2766 0009977 71.2536 288.9783 15.23905329 55231

Satellite not in orbit

FLOCK 3P-4